"SCET";"TARGET";"ELECTRON_DENSITY";"ERROR_FLAG";"ELECTRON_DENSITY_ERROR";"FREQ_FCE";"MEASURED_VALUE";"MEASURED_ITEM";"FREQ_PLASMA";"FREQ_UPPER_HYBRID";"FREQ_R_EQUALS_ZERO";"FREQ_L_EQUALS_ZERO";"ORBIT_NUMBER";"SATURN_RADIUS";"SATURN_IAU_LONGITUDE";"SATURN_SLS4_S_LONGITUDE";"SATURN_SLS4_N_LONGITUDE";"SATURN_SLS5_S_LONGITUDE";"SATURN_SLS5_N_LONGITUDE";"SATURN_LOCAL_TIME";"SATURN_KRONOGRAPHIC_LATITUDE";"SATURN_MAGNETIC_LATITUDE";"SATURN_L";"SATURN_L_OFFSET";"SATURN_SOLAR_EQUATORIAL_X";"SATURN_SOLAR_EQUATORIAL_Y";"SATURN_SOLAR_EQUATORIAL_Z";"SATURN_ALTITUDE";"ENCELADUS_ENCOUNTER_NUMBER";"ENCELADUS_RADIUS";"ENCELADUS_COROTATIONAL_X";"ENCELADUS_COROTATIONAL_Y";"ENCELADUS_COROTATIONAL_Z";"ENCELADUS_TRUE_ANOMALY";"ENCELADUS_PERIAPSIS_TIME";"JUPITER_RADIUS";"JUPITER_SYSTEMIII_LONGITUDE";"JUPITER_MAGNETIC_LATITUDE";"JUPITER_MAGNETIC_LOCAL_TIME";"JUPITER_L";"IO_PHASE";"EARTH_RADIUS";"EARTH_MAGNETIC_LATITUDE";"EARTH_LOCAL_TIME";"EARTH_L"
"[UTC]";"[0=Saturn, 1=Enceladus, 2=Jupiter, 3=Earth]";"[cm-3]";"[0=automated, 1=manual]";"[normalized density error]";"[Hz]";"[Hz]";"[0=upper hybrid frequency, 1=plasma frequency cutoff]";"[Hz]";"[Hz]";"[Hz]";"[Hz}";"[0, A, B, C, 3, 4, ... , 292, 293]";"[Rs where 1Rs=60268km]";"[degrees]";"[degrees]";"[degrees]";"[degrees]";"[degrees]";"[hours]";"[degrees]";"[degrees where offset=2293km north]";"[Rs where 1Rs=60268km]";"[Rs where 1Rs=60268km and offset=2293km north]";"[Rs where 1Rs=60268km]";"[Rs where 1Rs=60268km]";"[Rs where 1Rs=60268km]";"[km where ellipsoid a,b=60268km and c=54364km]";"[E0, E1, E2, ... , E21, E22]";"[Renc where 1Renc=252.1km]";"[Renc where 1Renc=252.1km]";"[Renc where 1Renc=252.1km]";"[Renc where 1Renc=252.1km]";"[degrees]";"[UTC]";"[Rj where 1Rj=71492km]";"[degrees]";"[degrees using JRM09 model]";"[hours using JRM09 model]";"[Rj where 1Rj=71492km]";"[degrees]";"[Re where 1Re=6378.1366km]";"[degrees]";"[hours]";"[Re where 1Re=6378.1366km]"
2010-09-03T00:00:01.362Z;0;3.0930e+01;0;     0.080; 11347.476;  51216.988; 0;  49944.117;  51216.988;  55939.094;  44591.617;137;   3.676; 265.157;;; 280.428; 275.228;   4.489;   0.457;  -0.136;   3.676;   3.672;  -1.416;  -3.391;   0.029;;;;;;;;;;;;;;;;;;
2010-09-03T00:00:09.362Z;0;3.0960e+01;0;     0.091; 11347.476;  51237.336; 0;  49964.980;  51237.336;  55959.828;  44612.352;137;   3.675; 265.197;;; 280.467; 275.267;   4.491;   0.460;  -0.134;   3.675;   3.671;  -1.414;  -3.392;   0.029;;;;;;;;;;;;;;;;;;
2010-09-03T00:00:17.361Z;0;3.0600e+01;0;     0.092; 11347.476;  50951.160; 0;  49671.477;  50951.160;  55668.207;  44320.730;137;   3.674; 265.236;;; 280.506; 275.306;   4.493;   0.462;  -0.131;   3.675;   3.671;  -1.412;  -3.392;   0.030;;;;;;;;;;;;;;;;;;
2010-09-03T00:00:25.361Z;0;3.0600e+01;0;     0.092; 11347.476;  50956.691; 0;  49677.148;  50956.691;  55673.844;  44326.367;137;   3.674; 265.275;;; 280.545; 275.345;   4.496;   0.465;  -0.128;   3.674;   3.670;  -1.410;  -3.393;   0.030;;;;;;;;;;;;;;;;;;
2010-09-03T00:00:33.361Z;0;3.0000e+01;0;     0.093; 11347.476;  50475.219; 0;  49183.152;  50475.219;  55183.070;  43835.594;137;   3.673; 265.315;;; 280.583; 275.383;   4.498;   0.468;  -0.125;   3.674;   3.669;  -1.407;  -3.393;   0.030;;;;;;;;;;;;;;;;;;
2010-09-03T00:00:41.361Z;0;2.9920e+01;0;     0.083; 11347.476;  50410.371; 0;  49116.598;  50410.371;  55116.953;  43769.477;137;   3.673; 265.354;;; 280.622; 275.422;   4.500;   0.471;  -0.122;   3.673;   3.669;  -1.405;  -3.393;   0.030;;;;;;;;;;;;;;;;;;
2010-09-03T00:00:49.361Z;0;3.0050e+01;0;     0.083; 11347.476;  50513.562; 0;  49222.504;  50513.562;  55222.160;  43874.684;137;   3.672; 265.393;;; 280.661; 275.461;   4.503;   0.474;  -0.120;   3.673;   3.668;  -1.403;  -3.394;   0.030;;;;;;;;;;;;;;;;;;
2010-09-03T00:01:05.361Z;0;2.9250e+01;0;     0.085; 11385.612;  49882.434; 0;  48565.676;  49882.434;  54590.996;  43205.387;137;   3.671; 265.472;;; 280.739; 275.539;   4.508;   0.480;  -0.114;   3.671;   3.667;  -1.398;  -3.394;   0.031;;;;;;;;;;;;;;;;;;
2010-09-03T00:01:13.361Z;0;2.9350e+01;0;     0.077; 11385.612;  49964.516; 0;  48649.980;  49964.516;  54674.727;  43289.117;137;   3.671; 265.511;;; 280.778; 275.578;   4.510;   0.483;  -0.111;   3.671;   3.667;  -1.396;  -3.395;   0.031;;;;;;;;;;;;;;;;;;
2010-09-03T00:01:21.361Z;0;2.9970e+01;0;     0.101; 11385.612;  50458.793; 0;  49157.477;  50458.793;  55178.820;  43793.207;137;   3.670; 265.551;;; 280.817; 275.617;   4.512;   0.485;  -0.108;   3.670;   3.666;  -1.393;  -3.395;   0.031;;;;;;;;;;;;;;;;;;
2010-09-03T00:01:29.361Z;0;2.9340e+01;0;     0.098; 11385.612;  49952.453; 0;  48637.594;  49952.453;  54662.422;  43276.812;137;   3.670; 265.590;;; 280.856; 275.656;   4.515;   0.488;  -0.106;   3.670;   3.666;  -1.391;  -3.396;   0.031;;;;;;;;;;;;;;;;;;
2010-09-03T00:01:37.361Z;0;2.9500e+01;0;     0.103; 11385.612;  50087.195; 0;  48775.969;  50087.195;  54799.863;  43414.250;137;   3.669; 265.629;;; 280.894; 275.694;   4.517;   0.491;  -0.103;   3.669;   3.665;  -1.389;  -3.396;   0.031;;;;;;;;;;;;;;;;;;
2010-09-03T00:01:45.361Z;0;2.9140e+01;0;     0.085; 11385.612;  49797.461; 0;  48478.398;  49797.461;  54504.312;  43118.699;137;   3.669; 265.668;;; 280.933; 275.733;   4.519;   0.494;  -0.100;   3.669;   3.665;  -1.386;  -3.396;   0.032;;;;;;;;;;;;;;;;;;
2010-09-03T00:01:53.361Z;0;2.8570e+01;0;     0.077; 11385.612;  49331.211; 0;  47999.336;  49331.211;  54028.551;  42642.938;137;   3.668; 265.708;;; 280.972; 275.772;   4.522;   0.497;  -0.097;   3.668;   3.664;  -1.384;  -3.397;   0.032;;;;;;;;;;;;;;;;;;
2010-09-03T00:02:01.361Z;0;2.8570e+01;0;     0.077; 11423.859;  49336.844; 0;  47996.035;  49336.844;  54046.656;  42622.797;137;   3.668; 265.747;;; 281.011; 275.811;   4.524;   0.500;  -0.094;   3.668;   3.664;  -1.382;  -3.397;   0.032;;;;;;;;;;;;;;;;;;
2010-09-03T00:02:09.361Z;0;2.8580e+01;0;     0.061; 11423.859;  49350.367; 0;  48009.938;  49350.367;  54060.461;  42636.602;137;   3.667; 265.786;;; 281.050; 275.850;   4.527;   0.503;  -0.092;   3.667;   3.663;  -1.379;  -3.397;   0.032;;;;;;;;;;;;;;;;;;
2010-09-03T00:02:17.361Z;0;2.8660e+01;0;     0.095; 11423.859;  49414.617; 0;  48075.980;  49414.617;  54126.039;  42702.180;137;   3.666; 265.825;;; 281.088; 275.888;   4.529;   0.506;  -0.089;   3.667;   3.663;  -1.377;  -3.398;   0.032;;;;;;;;;;;;;;;;;;
2010-09-03T00:02:25.361Z;0;2.8490e+01;0;     0.087; 11423.859;  49273.926; 0;  47931.359;  49273.926;  53982.430;  42558.570;137;   3.666; 265.864;;; 281.127; 275.927;   4.531;   0.509;  -0.086;   3.666;   3.662;  -1.375;  -3.398;   0.033;;;;;;;;;;;;;;;;;;
2010-09-03T00:02:33.361Z;0;2.8930e+01;0;     0.086; 11423.859;  49632.605; 0;  48300.012;  49632.605;  54348.512;  42924.652;137;   3.665; 265.904;;; 281.166; 275.966;   4.534;   0.511;  -0.083;   3.666;   3.661;  -1.372;  -3.399;   0.033;;;;;;;;;;;;;;;;;;
2010-09-03T00:02:41.360Z;0;2.8540e+01;0;     0.082; 11423.859;  49317.672; 0;  47976.328;  49317.672;  54027.086;  42603.227;137;   3.665; 265.943;;; 281.205; 276.005;   4.536;   0.514;  -0.080;   3.665;   3.661;  -1.370;  -3.399;   0.033;;;;;;;;;;;;;;;;;;
2010-09-03T00:02:49.360Z;0;2.8550e+01;0;     0.086; 11423.859;  49320.477; 0;  47979.211;  49320.477;  54029.949;  42606.090;137;   3.664; 265.982;;; 281.243; 276.043;   4.539;   0.517;  -0.078;   3.665;   3.660;  -1.368;  -3.399;   0.033;;;;;;;;;;;;;;;;;;
2010-09-03T00:02:57.360Z;0;2.8780e+01;0;     0.088; 11423.859;  49514.945; 0;  48179.094;  49514.945;  54228.438;  42804.578;137;   3.664; 266.021;;; 281.282; 276.082;   4.541;   0.520;  -0.075;   3.664;   3.660;  -1.365;  -3.400;   0.033;;;;;;;;;;;;;;;;;;
2010-09-03T00:03:05.360Z;0;2.8880e+01;0;     0.093; 11461.800;  49597.895; 0;  48255.344;  49597.895;  54325.359;  42863.559;137;   3.663; 266.060;;; 281.321; 276.121;   4.543;   0.523;  -0.072;   3.664;   3.659;  -1.363;  -3.400;   0.033;;;;;;;;;;;;;;;;;;
2010-09-03T00:03:13.360Z;0;2.7580e+01;0;     0.096; 11461.800;  48534.887; 0;  47162.086;  48534.887;  53239.906;  41778.105;137;   3.663; 266.099;;; 281.360; 276.160;   4.546;   0.526;  -0.069;   3.663;   3.659;  -1.361;  -3.400;   0.034;;;;;;;;;;;;;;;;;;
2010-09-03T00:03:21.360Z;0;2.8480e+01;0;     0.082; 11461.800;  49272.289; 0;  47920.617;  49272.289;  53992.984;  42531.184;137;   3.662; 266.139;;; 281.398; 276.198;   4.548;   0.529;  -0.066;   3.663;   3.658;  -1.358;  -3.401;   0.034;;;;;;;;;;;;;;;;;;
2010-09-03T00:03:29.360Z;0;2.8560e+01;0;     0.087; 11461.800;  49336.984; 0;  47987.137;  49336.984;  54059.031;  42597.230;137;   3.662; 266.178;;; 281.437; 276.237;   4.551;   0.532;  -0.063;   3.662;   3.658;  -1.356;  -3.401;   0.034;;;;;;;;;;;;;;;;;;
2010-09-03T00:03:37.360Z;0;2.8570e+01;0;     0.070; 11461.800;  49346.504; 0;  47996.922;  49346.504;  54068.750;  42606.949;137;   3.661; 266.217;;; 281.476; 276.276;   4.553;   0.535;  -0.061;   3.661;   3.657;  -1.354;  -3.401;   0.034;;;;;;;;;;;;;;;;;;
2010-09-03T00:03:45.360Z;0;2.8790e+01;0;     0.089; 11461.800;  49528.238; 0;  48183.746;  49528.238;  54254.262;  42792.461;137;   3.661; 266.256;;; 281.514; 276.314;   4.555;   0.538;  -0.058;   3.661;   3.657;  -1.351;  -3.402;   0.034;;;;;;;;;;;;;;;;;;
2010-09-03T00:03:53.360Z;0;2.8730e+01;0;     0.090; 11461.800;  49475.324; 0;  48129.355;  49475.324;  54200.250;  42738.453;137;   3.660; 266.295;;; 281.553; 276.353;   4.558;   0.540;  -0.055;   3.660;   3.656;  -1.349;  -3.402;   0.035;;;;;;;;;;;;;;;;;;
2010-09-03T00:04:01.360Z;0;2.8660e+01;0;     0.078; 11500.076;  49429.176; 0;  48072.773;  49429.176;  54165.477;  42665.398;137;   3.660; 266.334;;; 281.592; 276.392;   4.560;   0.543;  -0.052;   3.660;   3.656;  -1.347;  -3.403;   0.035;;;;;;;;;;;;;;;;;;
2010-09-03T00:04:09.360Z;0;2.8510e+01;0;     0.065; 11500.076;  49307.641; 0;  47947.801;  49307.641;  54041.391;  42541.312;137;   3.659; 266.373;;; 281.630; 276.430;   4.563;   0.546;  -0.049;   3.659;   3.655;  -1.344;  -3.403;   0.035;;;;;;;;;;;;;;;;;;
2010-09-03T00:04:17.360Z;0;2.8770e+01;0;     0.096; 11500.076;  49519.723; 0;  48165.871;  49519.723;  54257.914;  42757.840;137;   3.659; 266.412;;; 281.669; 276.469;   4.565;   0.549;  -0.047;   3.659;   3.655;  -1.342;  -3.403;   0.035;;;;;;;;;;;;;;;;;;
2010-09-03T00:04:25.360Z;0;2.8600e+01;0;     0.085; 11500.076;  49385.199; 0;  48027.555;  49385.199;  54120.578;  42620.500;137;   3.658; 266.451;;; 281.707; 276.507;   4.567;   0.552;  -0.044;   3.658;   3.654;  -1.340;  -3.404;   0.035;;;;;;;;;;;;;;;;;;
2010-09-03T00:04:33.360Z;0;2.8780e+01;0;     0.085; 11500.076;  49525.992; 0;  48172.316;  49525.992;  54264.316;  42764.238;137;   3.658; 266.490;;; 281.746; 276.546;   4.570;   0.555;  -0.041;   3.658;   3.654;  -1.337;  -3.404;   0.035;;;;;;;;;;;;;;;;;;
2010-09-03T00:04:41.360Z;0;2.8660e+01;0;     0.091; 11500.076;  49428.965; 0;  48072.559;  49428.965;  54165.262;  42665.184;137;   3.657; 266.529;;; 281.785; 276.585;   4.572;   0.558;  -0.038;   3.657;   3.653;  -1.335;  -3.404;   0.036;;;;;;;;;;;;;;;;;;
2010-09-03T00:04:49.360Z;0;2.8730e+01;0;     0.090; 11500.076;  49490.723; 0;  48136.055;  49490.723;  54228.309;  42728.234;137;   3.656; 266.568;;; 281.823; 276.623;   4.575;   0.561;  -0.035;   3.657;   3.653;  -1.333;  -3.405;   0.036;;;;;;;;;;;;;;;;;;
2010-09-03T00:04:57.359Z;0;2.8580e+01;0;     0.090; 11500.076;  49369.551; 0;  48011.465;  49369.551;  54104.602;  42604.523;137;   3.656; 266.607;;; 281.862; 276.662;   4.577;   0.564;  -0.033;   3.656;   3.652;  -1.330;  -3.405;   0.036;;;;;;;;;;;;;;;;;;
2010-09-03T00:05:05.359Z;0;2.8470e+01;0;     0.082; 11538.156;  49281.191; 0;  47911.449;  49281.191;  54026.605;  42488.449;137;   3.655; 266.646;;; 281.900; 276.700;   4.579;   0.567;  -0.030;   3.656;   3.652;  -1.328;  -3.405;   0.036;;;;;;;;;;;;;;;;;;
2010-09-03T00:05:13.359Z;0;2.8460e+01;0;     0.082; 11538.156;  49277.215; 0;  47907.355;  49277.215;  54022.547;  42484.391;137;   3.655; 266.685;;; 281.939; 276.739;   4.582;   0.569;  -0.027;   3.655;   3.651;  -1.326;  -3.406;   0.036;;;;;;;;;;;;;;;;;;
2010-09-03T00:05:21.359Z;0;2.8480e+01;0;     0.083; 11538.156;  49294.109; 0;  47924.734;  49294.109;  54039.797;  42501.641;137;   3.654; 266.724;;; 281.977; 276.777;   4.584;   0.572;  -0.024;   3.655;   3.650;  -1.323;  -3.406;   0.037;;;;;;;;;;;;;;;;;;
2010-09-03T00:05:29.359Z;0;2.8430e+01;0;     0.078; 11538.156;  49247.801; 0;  47877.102;  49247.801;  53992.508;  42454.352;137;   3.654; 266.763;;; 282.016; 276.816;   4.587;   0.575;  -0.021;   3.654;   3.650;  -1.321;  -3.406;   0.037;;;;;;;;;;;;;;;;;;
2010-09-03T00:05:37.359Z;0;2.8940e+01;0;     0.067; 11538.156;  49664.234; 0;  48305.352;  49664.234;  54417.711;  42879.555;137;   3.653; 266.802;;; 282.054; 276.854;   4.589;   0.578;  -0.018;   3.654;   3.649;  -1.319;  -3.407;   0.037;;;;;;;;;;;;;;;;;;
2010-09-03T00:05:45.359Z;0;2.8660e+01;0;     0.082; 11538.156;  49440.953; 0;  48075.762;  49440.953;  54189.746;  42651.590;137;   3.653; 266.841;;; 282.093; 276.893;   4.591;   0.581;  -0.016;   3.653;   3.649;  -1.316;  -3.407;   0.037;;;;;;;;;;;;;;;;;;
2010-09-03T00:05:53.359Z;0;2.8420e+01;0;     0.088; 11538.156;  49245.188; 0;  47874.414;  49245.188;  53989.840;  42451.684;137;   3.652; 266.880;;; 282.131; 276.931;   4.594;   0.584;  -0.013;   3.653;   3.648;  -1.314;  -3.407;   0.037;;;;;;;;;;;;;;;;;;
2010-09-03T00:06:01.359Z;0;2.8550e+01;0;     0.088; 11576.236;  49355.828; 0;  47979.043;  49355.828;  54115.035;  42538.797;137;   3.652; 266.919;;; 282.170; 276.970;   4.596;   0.587;  -0.010;   3.652;   3.648;  -1.312;  -3.408;   0.037;;;;;;;;;;;;;;;;;;
2010-09-03T00:06:09.359Z;0;2.9060e+01;0;     0.097; 11576.236;  49771.973; 0;  48407.023;  49771.973;  54539.961;  42963.727;137;   3.651; 266.958;;; 282.208; 277.008;   4.599;   0.590;  -0.007;   3.652;   3.647;  -1.309;  -3.408;   0.038;;;;;;;;;;;;;;;;;;
2010-09-03T00:06:17.359Z;0;2.9060e+01;0;     0.106; 11576.236;  49777.324; 0;  48412.527;  49777.324;  54545.426;  42969.191;137;   3.651; 266.997;;; 282.247; 277.047;   4.601;   0.593;  -0.004;   3.651;   3.647;  -1.307;  -3.409;   0.038;;;;;;;;;;;;;;;;;;
2010-09-03T00:06:25.359Z;0;2.8740e+01;0;     0.092; 11576.236;  49511.871; 0;  48139.547;  49511.871;  54274.391;  42698.152;137;   3.650; 267.036;;; 282.285; 277.085;   4.604;   0.596;  -0.001;   3.651;   3.646;  -1.305;  -3.409;   0.038;;;;;;;;;;;;;;;;;;
2010-09-03T00:06:33.359Z;0;2.8950e+01;0;     0.094; 11576.236;  49682.711; 0;  48315.242;  49682.711;  54448.828;  42872.594;137;   3.650; 267.075;;; 282.324; 277.124;   4.606;   0.599;   0.001;   3.650;   3.646;  -1.302;  -3.409;   0.038;;;;;;;;;;;;;;;;;;
2010-09-03T00:06:41.359Z;0;2.8510e+01;0;     0.091; 11576.236;  49329.680; 0;  47952.145;  49329.680;  54088.328;  42512.094;137;   3.649; 267.113;;; 282.362; 277.162;   4.608;   0.601;   0.004;   3.650;   3.645;  -1.300;  -3.410;   0.038;;;;;;;;;;;;;;;;;;
2010-09-03T00:06:49.359Z;0;2.8800e+01;0;     0.097; 11576.236;  49563.641; 0;  48192.793;  49563.641;  54327.254;  42751.016;137;   3.649; 267.152;;; 282.401; 277.201;   4.611;   0.604;   0.007;   3.649;   3.645;  -1.298;  -3.410;   0.039;;;;;;;;;;;;;;;;;;
2010-09-03T00:06:57.359Z;0;2.9120e+01;0;     0.084; 11576.236;  49819.562; 0;  48455.953;  49819.562;  54588.547;  43012.312;137;   3.648; 267.191;;; 282.439; 277.239;   4.613;   0.607;   0.010;   3.649;   3.644;  -1.295;  -3.410;   0.039;;;;;;;;;;;;;;;;;;
2010-09-03T00:07:05.359Z;0;2.8840e+01;0;     0.096; 11615.716;  49606.250; 0;  48227.121;  49606.250;  54383.434;  42767.715;137;   3.648; 267.230;;; 282.477; 277.277;   4.616;   0.610;   0.013;   3.648;   3.644;  -1.293;  -3.411;   0.039;;;;;;;;;;;;;;;;;;
2010-09-03T00:07:13.359Z;0;2.8940e+01;0;     0.095; 11615.716;  49688.543; 0;  48311.762;  49688.543;  54467.469;  42851.754;137;   3.647; 267.269;;; 282.516; 277.316;   4.618;   0.613;   0.015;   3.648;   3.643;  -1.291;  -3.411;   0.039;;;;;;;;;;;;;;;;;;
2010-09-03T00:07:21.358Z;0;2.8930e+01;0;     0.097; 11615.716;  49680.184; 0;  48303.164;  49680.184;  54458.934;  42843.215;137;   3.647; 267.308;;; 282.554; 277.354;   4.620;   0.616;   0.018;   3.647;   3.643;  -1.288;  -3.411;   0.039;;;;;;;;;;;;;;;;;;
2010-09-03T00:07:29.358Z;0;2.9070e+01;0;     0.097; 11615.716;  49790.484; 0;  48416.602;  49790.484;  54571.559;  42955.844;137;   3.646; 267.346;;; 282.593; 277.393;   4.623;   0.619;   0.021;   3.647;   3.642;  -1.286;  -3.412;   0.039;;;;;;;;;;;;;;;;;;
2010-09-03T00:07:37.358Z;0;2.9010e+01;0;     0.094; 11615.716;  49738.645; 0;  48363.289;  49738.645;  54518.629;  42902.914;137;   3.646; 267.385;;; 282.631; 277.431;   4.625;   0.622;   0.024;   3.646;   3.642;  -1.284;  -3.412;   0.040;;;;;;;;;;;;;;;;;;
2010-09-03T00:07:45.358Z;0;2.9200e+01;0;     0.090; 11615.716;  49898.734; 0;  48527.918;  49898.734;  54682.086;  43066.367;137;   3.645; 267.424;;; 282.669; 277.469;   4.628;   0.625;   0.027;   3.646;   3.641;  -1.281;  -3.412;   0.040;;;;;;;;;;;;;;;;;;
2010-09-03T00:07:53.358Z;0;2.9250e+01;0;     0.091; 11615.716;  49933.312; 0;  48563.473;  49933.312;  54717.387;  43101.672;137;   3.645; 267.463;;; 282.708; 277.508;   4.630;   0.628;   0.030;   3.645;   3.641;  -1.279;  -3.413;   0.040;;;;;;;;;;;;;;;;;;
2010-09-03T00:08:01.358Z;0;2.9330e+01;0;     0.092; 11655.141;  50012.195; 0;  48635.145;  50012.195;  54810.609;  43155.469;137;   3.644; 267.502;;; 282.746; 277.546;   4.633;   0.631;   0.032;   3.645;   3.640;  -1.277;  -3.413;   0.040;;;;;;;;;;;;;;;;;;
2010-09-03T00:08:09.358Z;0;2.9320e+01;0;     0.090; 11655.141;  50000.312; 0;  48622.926;  50000.312;  54798.477;  43143.336;137;   3.644; 267.540;;; 282.784; 277.584;   4.635;   0.633;   0.035;   3.644;   3.640;  -1.274;  -3.413;   0.040;;;;;;;;;;;;;;;;;;
2010-09-03T00:08:17.358Z;0;2.9190e+01;0;     0.098; 11655.141;  49897.051; 0;  48516.734;  49897.051;  54693.039;  43037.898;137;   3.643; 267.579;;; 282.823; 277.623;   4.637;   0.636;   0.038;   3.644;   3.639;  -1.272;  -3.414;   0.040;;;;;;;;;;;;;;;;;;
2010-09-03T00:08:25.358Z;0;2.9410e+01;0;     0.103; 11655.141;  50077.547; 0;  48702.344;  50077.547;  54877.332;  43222.191;137;   3.643; 267.618;;; 282.861; 277.661;   4.640;   0.639;   0.041;   3.643;   3.639;  -1.270;  -3.414;   0.041;;;;;;;;;;;;;;;;;;
2010-09-03T00:08:33.358Z;0;2.9750e+01;0;     0.080; 11655.141;  50349.285; 0;  48981.715;  50349.285;  55154.730;  43499.590;137;   3.642; 267.657;;; 282.899; 277.699;   4.642;   0.642;   0.044;   3.643;   3.638;  -1.267;  -3.414;   0.041;;;;;;;;;;;;;;;;;;
2010-09-03T00:08:41.358Z;0;2.9010e+01;0;     0.100; 11655.141;  49748.824; 0;  48364.277;  49748.824;  54541.672;  42886.531;137;   3.642; 267.695;;; 282.937; 277.737;   4.645;   0.645;   0.047;   3.642;   3.638;  -1.265;  -3.415;   0.041;;;;;;;;;;;;;;;;;;
2010-09-03T00:08:49.358Z;0;2.8970e+01;0;     0.078; 11655.141;  49717.059; 0;  48331.602;  49717.059;  54509.230;  42854.090;137;   3.641; 267.734;;; 282.976; 277.776;   4.647;   0.648;   0.049;   3.642;   3.637;  -1.263;  -3.415;   0.041;;;;;;;;;;;;;;;;;;
2010-09-03T00:08:57.358Z;0;2.8810e+01;0;     0.089; 11655.141;  49592.824; 0;  48203.797;  49592.824;  54382.348;  42727.207;137;   3.641; 267.773;;; 283.014; 277.814;   4.649;   0.651;   0.052;   3.641;   3.637;  -1.260;  -3.415;   0.041;;;;;;;;;;;;;;;;;;
2010-09-03T00:09:05.358Z;0;2.8890e+01;0;     0.081; 11691.428;  49659.680; 0;  48263.801;  49659.680;  54462.242;  42770.812;137;   3.640; 267.811;;; 283.052; 277.852;   4.652;   0.654;   0.055;   3.641;   3.636;  -1.258;  -3.416;   0.042;;;;;;;;;;;;;;;;;;
2010-09-03T00:09:13.358Z;0;2.9000e+01;0;     0.081; 11691.428;  49751.379; 0;  48358.145;  49751.379;  54555.902;  42864.477;137;   3.640; 267.850;;; 283.090; 277.890;   4.654;   0.657;   0.058;   3.640;   3.636;  -1.256;  -3.416;   0.042;;;;;;;;;;;;;;;;;;
2010-09-03T00:09:21.358Z;0;2.9020e+01;0;     0.086; 11691.428;  49767.078; 0;  48374.297;  49767.078;  54571.938;  42880.512;137;   3.639; 267.889;;; 283.129; 277.929;   4.657;   0.660;   0.061;   3.640;   3.635;  -1.253;  -3.416;   0.042;;;;;;;;;;;;;;;;;;
2010-09-03T00:09:29.358Z;0;2.8990e+01;0;     0.088; 11691.428;  49741.996; 0;  48348.492;  49741.996;  54546.320;  42854.891;137;   3.639; 267.927;;; 283.167; 277.967;   4.659;   0.663;   0.064;   3.639;   3.635;  -1.251;  -3.417;   0.042;;;;;;;;;;;;;;;;;;
2010-09-03T00:09:37.357Z;0;2.9100e+01;0;     0.071; 11691.428;  49834.262; 0;  48443.410;  49834.262;  54640.555;  42949.129;137;   3.638; 267.966;;; 283.205; 278.005;   4.662;   0.666;   0.067;   3.639;   3.634;  -1.249;  -3.417;   0.042;;;;;;;;;;;;;;;;;;
2010-09-03T00:09:45.357Z;0;2.8990e+01;0;     0.120; 11691.428;  49747.777; 0;  48354.441;  49747.777;  54552.227;  42860.797;137;   3.638; 268.005;;; 283.243; 278.043;   4.664;   0.669;   0.069;   3.638;   3.634;  -1.246;  -3.417;   0.042;;;;;;;;;;;;;;;;;;
2010-09-03T00:09:53.357Z;0;3.0380e+01;0;     0.099; 11691.428;  50855.871; 0;  49493.738;  50855.871;  55683.477;  43992.047;137;   3.637; 268.043;;; 283.281; 278.081;   4.666;   0.671;   0.072;   3.638;   3.633;  -1.244;  -3.418;   0.043;;;;;;;;;;;;;;;;;;
2010-09-03T00:10:01.357Z;0;3.0250e+01;0;     0.085; 11726.736;  50765.164; 0;  49392.160;  50765.164;  55602.332;  43875.598;137;   3.637; 268.082;;; 283.320; 278.120;   4.669;   0.674;   0.075;   3.637;   3.633;  -1.242;  -3.418;   0.043;;;;;;;;;;;;;;;;;;
2010-09-03T00:10:09.357Z;0;3.0500e+01;0;     0.098; 11726.736;  50961.230; 0;  49593.656;  50961.230;  55802.430;  44075.691;137;   3.636; 268.120;;; 283.358; 278.159;   4.671;   0.677;   0.078;   3.637;   3.632;  -1.239;  -3.418;   0.043;;;;;;;;;;;;;;;;;;
2010-09-03T00:10:17.357Z;0;3.0040e+01;0;     0.076; 11726.736;  50596.586; 0;  49218.879;  50596.586;  55430.266;  43703.527;137;   3.636; 268.159;;; 283.396; 278.197;   4.674;   0.680;   0.081;   3.636;   3.632;  -1.237;  -3.419;   0.043;;;;;;;;;;;;;;;;;;
2010-09-03T00:10:25.357Z;0;3.0070e+01;0;     0.101; 11726.736;  50621.508; 0;  49244.500;  50621.508;  55455.703;  43728.969;137;   3.635; 268.198;;; 283.434; 278.236;   4.676;   0.683;   0.084;   3.636;   3.631;  -1.234;  -3.419;   0.043;;;;;;;;;;;;;;;;;;
2010-09-03T00:10:33.357Z;0;3.0070e+01;0;     0.097; 11726.736;  50619.562; 0;  49242.500;  50619.562;  55453.719;  43726.980;137;   3.635; 268.236;;; 283.472; 278.275;   4.679;   0.686;   0.086;   3.635;   3.631;  -1.232;  -3.419;   0.044;;;;;;;;;;;;;;;;;;
2010-09-03T00:10:41.357Z;0;3.0440e+01;0;     0.087; 11726.736;  50915.980; 0;  49547.156;  50915.980;  55756.250;  44029.516;137;   3.634; 268.275;;; 283.510; 278.314;   4.681;   0.689;   0.089;   3.635;   3.630;  -1.230;  -3.420;   0.044;;;;;;;;;;;;;;;;;;
2010-09-03T00:10:49.357Z;0;3.0970e+01;0;     0.067; 11726.736;  51334.906; 0;  49977.559;  51334.906;  56183.695;  44456.961;137;   3.634; 268.313;;; 283.548; 278.353;   4.683;   0.692;   0.092;   3.634;   3.630;  -1.227;  -3.420;   0.044;;;;;;;;;;;;;;;;;;
2010-09-03T00:10:57.357Z;0;3.0800e+01;0;     0.063; 11726.736;  51201.293; 0;  49840.305;  51201.293;  56047.383;  44320.645;137;   3.633; 268.352;;; 283.587; 278.392;   4.686;   0.695;   0.095;   3.634;   3.629;  -1.225;  -3.420;   0.044;;;;;;;;;;;;;;;;;;
2010-09-03T00:11:05.357Z;0;2.9870e+01;0;     0.078; 11762.268;  50470.137; 0;  49080.379;  50470.137;  55312.617;  43550.348;137;   3.633; 268.390;;; 283.625; 278.431;   4.688;   0.698;   0.098;   3.633;   3.629;  -1.223;  -3.420;   0.044;;;;;;;;;;;;;;;;;;
2010-09-03T00:11:13.357Z;0;3.0450e+01;0;     0.090; 11762.268;  50930.965; 0;  49554.133;  50930.965;  55783.039;  44020.770;137;   3.632; 268.429;;; 283.663; 278.470;   4.691;   0.701;   0.101;   3.633;   3.628;  -1.220;  -3.421;   0.044;;;;;;;;;;;;;;;;;;
2010-09-03T00:11:21.357Z;0;3.0660e+01;0;     0.099; 11762.268;  51093.289; 0;  49720.953;  51093.289;  55948.699;  44186.430;137;   3.632; 268.468;;; 283.701; 278.509;   4.693;   0.704;   0.104;   3.632;   3.628;  -1.218;  -3.421;   0.045;;;;;;;;;;;;;;;;;;